Find Starlink 35362

NORAD ID: 65888 Int'l Des: 2025-224 Owner: SPXS Country: US Constellation: starlink operational
LEOCIRCULAR

現在のビュー

3D地球を読み込み中...

About Starlink 35362

Starlink 35362 (NORAD 65888) is a starlink constellation satellite (v2 mini) launched Oct 7, 2025 by SPXS of US. It operates in LEO, CIRCULAR orbit with a mass of 575.00 kg.

次回通過

Passes for default location (London). Set your location on the main map for personalized predictions.

高度履歴

Loading altitude history...

軌道要素

1 65888U 25224G 26265.14482597 .00023626 00000-0 70791-3 0 9997
2 65888 53.1582 178.0511 0001063 89.2936 270.8188 15.34411546 54918
Epoch: Sep 22, 2026 • Age: 16 hours

現在のステータス

高度 466.8 km
遠地点 / 近地点 N/A
速度 7.64 km/s
衛星直下点 45.67°N, 9.29°E
打ち上げ日 Oct 7, 2025
運用期間 0.9 years
タイプ internet

技術仕様

分類 Payload
質量 575.00 kg
乾燥質量 530.00 kg
長さ 0.30 m
スパン 29.00 m
形状 ? Box + pan
製造者 SPXS
バスタイプ Starlink V2MO
フェーズステータス In Orbit
所有者/国 SPXS/US

Most Searched